CST,Max TemperatureF,Mean TemperatureF,Min TemperatureF,Max Dew PointF,MeanDew PointF,Min DewpointF,Max Humidity, Mean Humidity, Min Humidity, Max Sea Level PressureIn, Mean Sea Level PressureIn, Min Sea Level PressureIn, Max VisibilityMiles, Mean VisibilityMiles, Min VisibilityMiles, Max Wind SpeedMPH, Mean Wind SpeedMPH, Max Gust SpeedMPH,PrecipitationIn, CloudCover, Events, WindDirDegrees
2013-2-1,61,48,34,36,29,20,85,54,22,30.37,30.33,30.29,10,10,10,15,5,21,0.00,0,,335
2013-2-2,64,48,31,42,27,19,85,53,20,30.38,30.28,30.17,10,10,10,10,3,14,0.00,0,,210
2013-2-3,67,54,41,46,38,25,100,60,20,30.23,30.17,30.09,10,8,0,20,4,24,T,1,Fog,299
2013-2-4,64,51,38,44,38,32,92,62,31,30.13,30.08,30.02,10,10,10,12,2,14,0.00,0,,172
2013-2-5,67,57,47,58,54,44,100,82,63,30.07,30.03,29.99,10,10,6,10,4,13,0.13,7,Rain,119
2013-2-6,73,63,52,58,56,51,100,77,53,30.15,30.09,30.05,10,7,2,13,3,16,0.00,5,,55
2013-2-7,67,60,53,64,59,52,100,94,87,30.06,29.88,29.79,10,6,0,33,5,38,2.10,7,Fog-Rain-Thunderstorm,37
2013-2-8,69,60,51,58,54,50,100,82,63,30.15,30.03,29.94,10,8,2,14,3,18,0.05,6,Rain,356
2013-2-9,66,54,41,49,41,35,93,64,34,30.27,30.21,30.15,10,10,8,13,5,16,0.00,0,,49
2013-2-10,75,61,46,63,53,42,86,72,57,30.22,30.13,30.06,10,10,10,22,9,30,0.00,4,Thunderstorm,143
2013-2-11,79,69,58,66,63,55,93,80,67,30.11,30.07,30.04,10,9,2,28,9,40,0.22,8,Rain-Thunderstorm,73
2013-2-12,73,66,59,70,62,57,100,95,90,30.06,29.93,29.76,10,9,2,24,9,30,0.19,8,Rain,94
2013-2-13,71,60,49,70,57,43,93,66,39,30.04,29.86,29.77,10,9,6,22,10,28,0.08,6,Rain,272
2013-2-14,51,44,37,43,39,35,92,79,66,30.14,30.07,29.99,10,10,9,12,4,13,0.00,0,,356
2013-2-15,66,50,33,43,36,30,100,67,34,30.15,30.08,30.01,10,6,0,10,2,29,0.00,3,Fog,14
2013-2-16,57,46,35,41,28,12,89,56,23,30.25,30.09,30.00,10,10,6,28,11,38,0.03,2,Rain,307
2013-2-17,53,41,28,27,19,10,78,49,19,30.39,30.31,30.26,10,10,10,10,3,14,0.00,0,,313
2013-2-18,62,45,28,33,26,19,85,54,23,30.37,30.28,30.15,10,10,10,14,5,21,0.00,0,,157
2013-2-19,67,54,41,61,51,33,93,75,56,30.18,30.09,30.05,10,8,2,16,7,21,0.15,5,Rain,248
2013-2-20,59,46,32,37,29,21,96,60,24,30.23,30.17,30.11,10,10,10,16,3,22,0.00,0,,13
2013-2-21,72,53,33,60,41,29,96,61,26,30.14,30.04,29.97,10,10,8,12,4,17,0.00,1,,125
2013-2-22,68,66,63,66,65,61,100,97,93,30.02,29.97,29.91,10,5,1,12,6,17,2.51,8,Rain-Thunderstorm,145
2013-2-23,71,64,56,70,64,55,100,94,87,29.94,29.88,29.81,10,5,0,16,6,23,1.61,8,Fog-Rain-Thunderstorm,269
2013-2-24,73,62,51,55,51,46,100,71,41,30.02,29.94,29.88,10,9,4,12,6,15,0.21,6,Rain-Thunderstorm,49
2013-2-25,62,58,53,60,56,52,100,92,84,29.92,29.83,29.62,10,6,1,21,10,29,4.57,8,Rain-Thunderstorm,67
2013-2-26,69,61,52,66,55,44,100,73,45,29.88,29.64,29.51,10,9,1,26,13,33,1.06,4,Rain,220
2013-2-27,64,55,45,44,40,36,77,58,39,30.01,29.95,29.91,10,10,10,14,5,17,0.00,0,,275
2013-2-28,62,53,44,44,35,29,93,61,29,30.04,29.99,29.95,10,10,10,20,9,23,0.00,0,,302